Starlink 35688

operational
NORAD ID: 67019 Int'l Des: 2025-293 Owner: SPXS Country: US Constellation: starlink
LEOCIRCULAR

Über Starlink 35688

Beschreibung wird geladen...

Live-Position

3D-Globus wird geladen...

Nächste Überflüge

Höhenverlauf

Altitude vs Time

uPlot chart will show altitude changes over time

Zweizeiliger Elementsatz

1 67019C 25293S 25346.10256944 -.00134830 00000+0 -18349-3 0 3469
2 67019 69.9970 325.9302 0004685 268.0560 191.6284 16.06182989 11
Epoch: 12. Dez. 2025 • Age: 56 hours

Aktueller Status

Höhe 271.2 km
Geschwindigkeit 7.74 km/s
Subsatellitenpunkt -38.01°S, 104.23°E
Startdatum 10. Dez. 2025
Alter 3 days
Typ internet

Technische Details

Klassifizierung Payload
Masse 575.00 kg
Trockenmasse 530.00 kg
Gesamtmasse 575.00 kg
Länge 0.30 m
Durchmesser 4.10 m
Spannweite 29.00 m
Form Box + pan
Hersteller SPXS
Bus-Typ Starlink V2MO
Phasenstatus In Orbit
Besitzer/Staat SPXS/US

Große Konstellationen

Loading constellations...